Time,TemperatureF,DewpointF,PressureIn,WindDirection,WindDirectionDegrees,WindSpeedMPH,WindSpeedGustMPH,Humidity,HourlyPrecipIn,Conditions,Clouds,dailyrainin,SolarRadiationWatts/m^2,SoftwareType,DateUTC
2013-03-16 00:08:00,18.8,14.0,29.99,North,355,0.0,1.0,80,0.00,,,0.00,0,weatherlink.com 1.10,2013-03-16 04:08:00,
2013-03-16 00:23:00,18.7,14.0,29.98,North,355,1.0,2.0,81,0.00,,,0.00,0,weatherlink.com 1.10,2013-03-16 04:23:00,
2013-03-16 00:38:00,18.8,14.0,29.98,North,355,1.0,2.0,80,0.00,,,0.00,0,weatherlink.com 1.10,2013-03-16 04:38:00,
2013-03-16 00:53:00,18.8,13.0,29.98,North,355,1.0,2.0,79,0.00,,,0.00,0,weatherlink.com 1.10,2013-03-16 04:53:00,
2013-03-16 01:08:00,18.9,14.0,29.98,North,355,0.0,2.0,80,0.00,,,0.00,0,weatherlink.com 1.10,2013-03-16 05:08:00,
2013-03-16 01:23:00,18.6,14.0,29.98,North,355,0.0,1.0,83,0.00,,,0.00,0,weatherlink.com 1.10,2013-03-16 05:23:00,
2013-03-16 01:38:00,18.5,15.0,29.97,North,355,0.0,1.0,85,0.00,,,0.00,0,weatherlink.com 1.10,2013-03-16 05:38:00,
2013-03-16 01:53:00,18.4,15.0,29.97,North,355,0.0,1.0,85,0.00,,,0.00,0,weatherlink.com 1.10,2013-03-16 05:53:00,
2013-03-16 02:08:00,18.4,15.0,29.97,North,355,0.0,0.0,85,0.00,,,0.00,0,weatherlink.com 1.10,2013-03-16 06:08:00,
2013-03-16 02:23:00,18.8,14.0,29.97,North,350,0.0,2.0,81,0.00,,,0.00,0,weatherlink.com 1.10,2013-03-16 06:23:00,
2013-03-16 02:38:00,19.2,14.0,29.97,WNW,302,0.0,2.0,79,0.00,,,0.00,0,weatherlink.com 1.10,2013-03-16 06:38:00,
2013-03-16 02:53:00,19.3,15.0,29.97,North,360,1.0,4.0,83,0.00,,,0.00,0,weatherlink.com 1.10,2013-03-16 06:53:00,
2013-03-16 03:08:00,19.1,16.0,29.96,ENE,57,2.0,4.0,86,0.00,,,0.00,0,weatherlink.com 1.10,2013-03-16 07:08:00,
2013-03-16 03:23:00,18.8,15.0,29.96,NE,50,0.0,7.0,86,0.00,,,0.00,0,weatherlink.com 1.10,2013-03-16 07:23:00,
2013-03-16 03:38:00,18.7,16.0,29.95,NE,37,1.0,6.0,87,0.00,,,0.00,0,weatherlink.com 1.10,2013-03-16 07:38:00,
2013-03-16 03:53:00,18.7,16.0,29.95,NNE,15,0.0,3.0,88,0.00,,,0.00,0,weatherlink.com 1.10,2013-03-16 07:53:00,
2013-03-16 04:08:00,18.6,15.0,29.95,ENE,64,0.0,2.0,87,0.00,,,0.00,0,weatherlink.com 1.10,2013-03-16 08:08:00,
2013-03-16 04:23:00,18.8,16.0,29.95,NW,315,2.0,4.0,87,0.00,,,0.00,0,weatherlink.com 1.10,2013-03-16 08:23:00,
2013-03-16 04:38:00,19.0,16.0,29.95,NW,307,1.0,3.0,87,0.00,,,0.00,0,weatherlink.com 1.10,2013-03-16 08:38:00,
2013-03-16 04:53:00,19.3,16.0,29.94,NW,313,1.0,4.0,88,0.00,,,0.00,0,weatherlink.com 1.10,2013-03-16 08:53:00,
2013-03-16 05:08:00,19.3,16.0,29.94,North,5,0.0,7.0,88,0.00,,,0.00,0,weatherlink.com 1.10,2013-03-16 09:08:00,
2013-03-16 05:23:00,19.3,16.0,29.94,ENE,68,4.0,5.0,87,0.00,,,0.00,0,weatherlink.com 1.10,2013-03-16 09:23:00,
2013-03-16 05:38:00,19.2,16.0,29.95,NW,319,0.0,4.0,88,0.00,,,0.00,0,weatherlink.com 1.10,2013-03-16 09:38:00,
2013-03-16 05:53:00,19.2,17.0,29.95,NE,44,0.0,3.0,89,0.00,,,0.00,0,weatherlink.com 1.10,2013-03-16 09:53:00,
2013-03-16 06:08:00,19.2,17.0,29.95,ENE,59,0.0,5.0,89,0.00,,,0.00,0,weatherlink.com 1.10,2013-03-16 10:08:00,
2013-03-16 06:23:00,19.0,17.0,29.95,East,90,1.0,5.0,90,0.00,,,0.00,0,weatherlink.com 1.10,2013-03-16 10:23:00,
2013-03-16 06:38:00,18.8,16.0,29.95,North,5,2.0,6.0,90,0.00,,,0.00,0,weatherlink.com 1.10,2013-03-16 10:38:00,
2013-03-16 06:53:00,18.8,16.0,29.96,NNE,21,3.0,3.0,90,0.00,,,0.00,0,weatherlink.com 1.10,2013-03-16 10:53:00,
2013-03-16 07:08:00,18.6,16.0,29.96,NNW,336,0.0,2.0,89,0.00,,,0.00,0,weatherlink.com 1.10,2013-03-16 11:08:00,
2013-03-16 07:23:00,18.4,16.0,29.96,ENE,77,0.0,3.0,88,0.00,,,0.00,0,weatherlink.com 1.10,2013-03-16 11:23:00,
2013-03-16 07:38:00,18.5,16.0,29.97,ESE,102,1.0,2.0,88,0.00,,,0.00,0,weatherlink.com 1.10,2013-03-16 11:38:00,
2013-03-16 07:53:00,18.5,16.0,29.97,NNE,12,0.0,2.0,88,0.00,,,0.00,0,weatherlink.com 1.10,2013-03-16 11:53:00,
2013-03-16 08:08:00,18.4,16.0,29.97,NNE,29,0.0,2.0,89,0.00,,,0.00,0,weatherlink.com 1.10,2013-03-16 12:08:00,
2013-03-16 08:23:00,18.4,16.0,29.98,North,355,0.0,2.0,89,0.00,,,0.00,0,weatherlink.com 1.10,2013-03-16 12:23:00,
2013-03-16 08:38:00,18.4,16.0,29.99,North,5,1.0,2.0,90,0.00,,,0.00,0,weatherlink.com 1.10,2013-03-16 12:38:00,
2013-03-16 08:54:00,18.4,16.0,29.99,North,5,0.0,2.0,90,0.00,,,0.00,5,weatherlink.com 1.10,2013-03-16 12:54:00,
2013-03-16 09:09:00,18.4,16.0,29.99,NE,54,0.0,2.0,90,0.00,,,0.00,9,weatherlink.com 1.10,2013-03-16 13:09:00,
2013-03-16 09:24:00,18.6,16.0,30.00,NE,53,1.0,2.0,90,0.00,,,0.00,16,weatherlink.com 1.10,2013-03-16 13:24:00,
2013-03-16 09:39:00,19.0,16.0,30.00,NE,55,0.0,1.0,89,0.00,,,0.00,16,weatherlink.com 1.10,2013-03-16 13:39:00,
2013-03-16 09:54:00,19.2,16.0,30.01,North,5,1.0,3.0,88,0.00,,,0.00,25,weatherlink.com 1.10,2013-03-16 13:54:00,
2013-03-16 10:09:00,19.5,16.0,30.01,NNE,25,2.0,5.0,87,0.00,,,0.00,39,weatherlink.com 1.10,2013-03-16 14:09:00,
2013-03-16 10:24:00,20.0,16.0,30.01,NNE,19,2.0,5.0,85,0.00,,,0.00,42,weatherlink.com 1.10,2013-03-16 14:24:00,
2013-03-16 10:39:00,20.4,16.0,30.01,NE,36,1.0,3.0,84,0.00,,,0.00,47,weatherlink.com 1.10,2013-03-16 14:39:00,
2013-03-16 10:54:00,21.4,17.0,30.01,NNE,20,0.0,3.0,82,0.00,,,0.00,56,weatherlink.com 1.10,2013-03-16 14:54:00,
2013-03-16 11:09:00,22.0,17.0,30.01,NE,44,3.0,4.0,80,0.00,,,0.00,58,weatherlink.com 1.10,2013-03-16 15:09:00,
2013-03-16 11:24:00,22.1,17.0,30.01,East,95,2.0,4.0,80,0.00,,,0.00,83,weatherlink.com 1.10,2013-03-16 15:24:00,
2013-03-16 11:39:00,21.6,15.0,30.01,East,82,1.0,7.0,76,0.00,,,0.00,86,weatherlink.com 1.10,2013-03-16 15:39:00,
2013-03-16 11:54:00,22.3,16.0,30.01,North,11,3.0,7.0,75,0.00,,,0.00,141,weatherlink.com 1.10,2013-03-16 15:54:00,
2013-03-16 12:09:00,23.2,16.0,30.01,NW,326,0.0,3.0,74,0.01,,,0.01,107,weatherlink.com 1.10,2013-03-16 16:09:00,
2013-03-16 12:24:00,23.2,16.0,30.00,NW,313,1.0,6.0,75,0.01,,,0.01,116,weatherlink.com 1.10,2013-03-16 16:24:00,
2013-03-16 12:39:00,23.4,16.0,30.00,ENE,61,4.0,8.0,74,0.01,,,0.01,114,weatherlink.com 1.10,2013-03-16 16:39:00,
2013-03-16 12:54:00,22.8,16.0,30.00,NE,53,3.0,4.0,75,0.01,,,0.01,77,weatherlink.com 1.10,2013-03-16 16:54:00,
2013-03-16 13:09:00,21.8,16.0,30.00,ENE,66,4.0,4.0,77,0.00,,,0.01,72,weatherlink.com 1.10,2013-03-16 17:09:00,
2013-03-16 13:24:00,22.4,16.0,29.99,NE,54,4.0,4.0,77,0.00,,,0.01,111,weatherlink.com 1.10,2013-03-16 17:24:00,
2013-03-16 13:39:00,23.1,16.0,29.99,ENE,58,2.0,4.0,74,0.00,,,0.01,167,weatherlink.com 1.10,2013-03-16 17:39:00,
2013-03-16 13:54:00,23.9,16.0,29.99,NNW,332,1.0,4.0,73,0.00,,,0.01,135,weatherlink.com 1.10,2013-03-16 17:54:00,
2013-03-16 14:09:00,23.1,16.0,29.98,NNE,30,0.0,6.0,73,0.00,,,0.01,149,weatherlink.com 1.10,2013-03-16 18:09:00,
2013-03-16 14:24:00,23.5,16.0,29.98,ENE,59,3.0,5.0,73,0.00,,,0.01,216,weatherlink.com 1.10,2013-03-16 18:24:00,
2013-03-16 14:39:00,23.8,17.0,29.98,NE,46,1.0,3.0,74,0.00,,,0.01,169,weatherlink.com 1.10,2013-03-16 18:39:00,
2013-03-16 14:54:00,22.4,16.0,29.98,NE,55,3.0,6.0,77,0.00,,,0.01,204,weatherlink.com 1.10,2013-03-16 18:54:00,
2013-03-16 15:09:00,22.2,17.0,29.98,NE,55,2.0,5.0,80,0.00,,,0.01,165,weatherlink.com 1.10,2013-03-16 19:09:00,
2013-03-16 15:24:00,22.3,17.0,29.97,NNE,31,1.0,5.0,80,0.00,,,0.01,193,weatherlink.com 1.10,2013-03-16 19:24:00,
2013-03-16 15:39:00,22.3,17.0,29.97,NE,39,2.0,4.0,81,0.00,,,0.01,209,weatherlink.com 1.10,2013-03-16 19:39:00,
2013-03-16 15:54:00,22.6,18.0,29.98,NE,41,1.0,5.0,81,0.00,,,0.01,185,weatherlink.com 1.10,2013-03-16 19:54:00,
2013-03-16 16:09:00,22.5,17.0,29.96,NE,48,1.0,4.0,79,0.00,,,0.01,183,weatherlink.com 1.10,2013-03-16 20:09:00,
2013-03-16 16:24:00,22.7,17.0,29.96,NE,53,3.0,4.0,80,0.00,,,0.01,153,weatherlink.com 1.10,2013-03-16 20:24:00,
2013-03-16 16:39:00,22.8,18.0,29.96,NNE,24,1.0,3.0,80,0.00,,,0.01,163,weatherlink.com 1.10,2013-03-16 20:39:00,
2013-03-16 16:54:00,22.7,17.0,29.96,NE,56,3.0,5.0,80,0.00,,,0.01,146,weatherlink.com 1.10,2013-03-16 20:54:00,
2013-03-16 17:09:00,22.5,17.0,29.96,NE,53,1.0,3.0,80,0.00,,,0.01,153,weatherlink.com 1.10,2013-03-16 21:09:00,
2013-03-16 17:24:00,22.8,18.0,29.96,NE,39,2.0,3.0,80,0.00,,,0.01,146,weatherlink.com 1.10,2013-03-16 21:24:00,
2013-03-16 17:39:00,22.6,17.0,29.96,ENE,59,1.0,4.0,80,0.00,,,0.01,104,weatherlink.com 1.10,2013-03-16 21:39:00,
2013-03-16 17:54:00,22.7,18.0,29.97,NNE,24,1.0,3.0,81,0.00,,,0.01,104,weatherlink.com 1.10,2013-03-16 21:54:00,
2013-03-16 18:09:00,22.7,18.0,29.96,NE,36,2.0,3.0,81,0.00,,,0.01,83,weatherlink.com 1.10,2013-03-16 22:09:00,
2013-03-16 18:24:00,22.5,18.0,29.95,NE,36,2.0,3.0,81,0.00,,,0.01,69,weatherlink.com 1.10,2013-03-16 22:24:00,
2013-03-16 18:39:00,22.5,18.0,29.96,NE,37,0.0,2.0,81,0.00,,,0.01,67,weatherlink.com 1.10,2013-03-16 22:39:00,
2013-03-16 18:54:00,22.8,18.0,29.96,NE,37,0.0,1.0,80,0.00,,,0.01,39,weatherlink.com 1.10,2013-03-16 22:54:00,
2013-03-16 19:09:00,22.7,18.0,29.96,NE,37,0.0,2.0,81,0.00,,,0.01,28,weatherlink.com 1.10,2013-03-16 23:09:00,
2013-03-16 19:24:00,22.7,17.0,29.96,NW,312,2.0,3.0,79,0.00,,,0.01,18,weatherlink.com 1.10,2013-03-16 23:24:00,
2013-03-16 19:39:00,23.5,16.0,29.95,WNW,296,1.0,6.0,73,0.00,,,0.01,9,weatherlink.com 1.10,2013-03-16 23:39:00,
2013-03-16 19:54:00,23.4,17.0,29.95,WNW,298,0.0,2.0,75,0.00,,,0.01,0,weatherlink.com 1.10,2013-03-16 23:54:00,
2013-03-16 20:09:00,23.1,17.0,29.96,WSW,243,1.0,4.0,76,0.00,,,0.01,0,weatherlink.com 1.10,2013-03-17 00:09:00,
2013-03-16 20:24:00,22.9,17.0,29.96,West,281,0.0,4.0,78,0.00,,,0.01,0,weatherlink.com 1.10,2013-03-17 00:24:00,
2013-03-16 20:39:00,22.5,17.0,29.96,WNW,282,0.0,2.0,79,0.00,,,0.01,0,weatherlink.com 1.10,2013-03-17 00:39:00,
2013-03-16 20:54:00,22.2,16.0,29.97,WNW,283,2.0,3.0,78,0.00,,,0.01,0,weatherlink.com 1.10,2013-03-17 00:54:00,
2013-03-16 21:09:00,22.1,17.0,29.98,WNW,283,0.0,3.0,79,0.00,,,0.01,0,weatherlink.com 1.10,2013-03-17 01:09:00,
2013-03-16 21:24:00,21.9,16.0,29.98,WNW,283,0.0,3.0,79,0.00,,,0.01,0,weatherlink.com 1.10,2013-03-17 01:24:00,
2013-03-16 21:39:00,21.6,16.0,29.99,West,262,2.0,3.0,79,0.00,,,0.01,0,weatherlink.com 1.10,2013-03-17 01:39:00,
2013-03-16 21:54:00,21.7,16.0,30.00,NNW,332,2.0,7.0,78,0.00,,,0.01,0,weatherlink.com 1.10,2013-03-17 01:54:00,
2013-03-16 22:09:00,21.3,16.0,30.02,NW,317,0.0,4.0,81,0.00,,,0.01,0,weatherlink.com 1.10,2013-03-17 02:09:00,
2013-03-16 22:25:00,20.9,17.0,30.03,NW,314,0.0,3.0,85,0.00,,,0.01,0,weatherlink.com 1.10,2013-03-17 02:25:00,
2013-03-16 22:40:00,20.3,17.0,30.04,NW,314,1.0,3.0,88,0.00,,,0.01,0,weatherlink.com 1.10,2013-03-17 02:40:00,
2013-03-16 22:55:00,19.9,17.0,30.05,NW,309,2.0,6.0,87,0.00,,,0.01,0,weatherlink.com 1.10,2013-03-17 02:55:00,
2013-03-16 23:10:00,19.4,16.0,30.06,WNW,294,2.0,5.0,86,0.00,,,0.01,0,weatherlink.com 1.10,2013-03-17 03:10:00,
2013-03-16 23:25:00,19.0,15.0,30.08,NW,325,5.0,5.0,85,0.00,,,0.01,0,weatherlink.com 1.10,2013-03-17 03:25:00,
2013-03-16 23:40:00,18.4,14.0,30.09,WNW,286,3.0,8.0,84,0.00,,,0.01,0,weatherlink.com 1.10,2013-03-17 03:40:00,
2013-03-16 23:55:00,17.7,13.0,30.09,NW,304,3.0,5.0,83,0.00,,,0.01,0,weatherlink.com 1.10,2013-03-17 03:55:00,